Perry, FL

9:58 PM EST on February 11, 2016 (GMT -0500)
Perry

Weather History for K40J - September, 2013

Change the Weather History Date:

Friday, September 27, 2013

  Actual Average (KCTY) Record (KCTY)
Temperature  
Mean Temperature 72 °F 76 °F  
Max Temperature 84 °F 87 °F 93 °F (2012)
Min Temperature 60 °F 66 °F 55 °F (2008)
Degree Days  
Heating Degree Days 0 0  
Month to date heating degree days 0  
Since 1 July heating degree days 0  
Cooling Degree Days 7 11  
Month to date cooling degree days 369  
Year to date cooling degree days 2307  
Growing Degree Days 22 (Base 50)    
Moisture  
Dew Point 61 °F    
Average Humidity 72    
Maximum Humidity 100    
Minimum Humidity 39    
Precipitation  
Precipitation 0.00 in 0.12 in 1.77 in (2010)
Month to date precipitation 4.13  
Year to date precipitation 39.50  
Sea Level Pressure  
Sea Level Pressure 29.98 in    
Wind  
Wind Speed 4 mph (NNE)    
Max Wind Speed 12 mph    
Max Gust Speed 18 mph    
Visibility 8 miles    
Events      
T = Trace of Precipitation, MM = Missing Value Source: NWS Daily Summary

Daily Weather History Graph

Daily Weather History Graph

Search for Another Location

Airport or City:

Trip Planner

Search our weather history database for the weather conditions in past years. The results will help you decide how hot, cold, wet, or windy it might be!

Date:

Astronomy

Sep. 27, 2013 Rise Set
Actual Time 7:25 AM EDT 7:24 PM EDT
Civil Twilight 7:01 AM EDT 7:48 PM EDT
Nautical Twilight 6:33 AM EDT 8:15 PM EDT
Astronomical Twilight 6:05 AM EDT 8:43 PM EDT
Moon 12:43 AM EDT (9/27) 2:39 PM EDT (9/27)
Length of Visible Light 12h 46m
Length of Day
11h 58m
Last Quarter, 45% of the Moon is Illuminated
Sep 27
Last Quarter
Oct 4
New
Oct 11
First Quarter
Oct 18
Full
Oct 26
Last Quarter

Hourly Weather History & Observations

Time (EDT) Temp. Heat Index Dew Point Humidity Pressure Visibility Wind Dir Wind Speed Gust Speed Precip Events Conditions
12:15 AM 66.2 °F - 64.4 °F 94% 29.96 in 10.0 mi North 3.5 mph - N/A   Clear
12:35 AM 66.2 °F - 64.4 °F 94% 29.95 in 10.0 mi Calm Calm - N/A   Clear
12:53 AM 68.0 °F - 64.0 °F 87% 29.94 in - North 3.5 mph - N/A   Unknown
12:55 AM 64.4 °F - 64.4 °F 100% 29.95 in 10.0 mi Calm Calm - N/A   Clear
1:15 AM 64.4 °F - 62.6 °F 94% 29.95 in 10.0 mi Calm Calm - N/A   Clear
1:35 AM 64.4 °F - 62.6 °F 94% 29.95 in 10.0 mi Calm Calm - N/A   Clear
1:53 AM 66.9 °F - 64.0 °F 90% 29.93 in - Calm Calm - N/A   Unknown
1:55 AM 64.4 °F - 62.6 °F 94% 29.95 in 10.0 mi NNE 3.5 mph - N/A   Clear
2:15 AM 64.4 °F - 62.6 °F 94% 29.95 in 10.0 mi Calm Calm - N/A   Clear
2:35 AM 64.4 °F - 62.6 °F 94% 29.95 in 7.0 mi North 3.5 mph - N/A   Clear
2:53 AM 66.0 °F - 63.0 °F 90% 29.93 in - Calm Calm - N/A   Unknown
2:55 AM 64.4 °F - 62.6 °F 94% 29.95 in 7.0 mi Calm Calm - N/A   Clear
3:15 AM 64.4 °F - 62.6 °F 94% 29.94 in 7.0 mi Calm Calm - N/A   Clear
3:35 AM 64.4 °F - 62.6 °F 94% 29.94 in 7.0 mi Calm Calm - N/A   Clear
3:53 AM 66.0 °F - 63.0 °F 90% 29.93 in - Calm Calm - N/A   Unknown
3:55 AM 64.4 °F - 62.6 °F 94% 29.94 in 7.0 mi Calm Calm - N/A   Clear
4:15 AM 62.6 °F - 62.6 °F 100% 29.95 in 4.0 mi Calm Calm - N/A   Clear
4:35 AM 60.8 °F - 60.8 °F 100% 29.95 in 4.0 mi Calm Calm - N/A   Clear
4:53 AM 63.0 °F - 61.0 °F 93% 29.94 in - Calm Calm - N/A   Unknown
4:55 AM 60.8 °F - 60.8 °F 100% 29.95 in 0.8 mi Calm Calm - N/A   Mist
5:15 AM 62.6 °F - 60.8 °F 94% 29.95 in 1.2 mi Calm Calm - N/A   Mist
5:35 AM 62.6 °F - 60.8 °F 94% 29.96 in 0.8 mi Calm Calm - N/A   Mist
5:53 AM 64.0 °F - 62.1 °F 93% 29.95 in - Calm Calm - N/A   Unknown
5:55 AM 62.6 °F - 60.8 °F 94% 29.96 in 0.8 mi Calm Calm - N/A   Mist
6:15 AM 62.6 °F - 60.8 °F 94% 29.97 in 1.5 mi North 3.5 mph - N/A   Mist
6:35 AM 62.6 °F - 60.8 °F 94% 29.97 in 4.0 mi North 3.5 mph - N/A   Clear
6:53 AM 64.0 °F - 62.1 °F 93% 29.96 in - North 3.5 mph - N/A   Unknown
6:55 AM 62.6 °F - 60.8 °F 94% 29.97 in 5.0 mi North 3.5 mph - N/A   Clear
7:15 AM 62.6 °F - 60.8 °F 94% 29.98 in 5.0 mi North 3.5 mph - N/A   Clear
7:35 AM 62.6 °F - 60.8 °F 94% 29.98 in 5.0 mi North 4.6 mph - N/A   Clear
7:53 AM 64.9 °F - 62.1 °F 90% 29.98 in - North 3.5 mph - N/A   Unknown
7:55 AM 62.6 °F - 60.8 °F 94% 29.99 in 5.0 mi North 3.5 mph - N/A   Clear
8:15 AM 62.6 °F - 62.6 °F 100% 30.00 in 5.0 mi North 4.6 mph - N/A   Clear
8:35 AM 64.4 °F - 62.6 °F 94% 30.01 in 7.0 mi NNE 5.8 mph - N/A   Clear
8:53 AM 69.1 °F - 63.0 °F 81% 30.00 in - NNE 5.8 mph - N/A   Unknown
8:55 AM 64.4 °F - 62.6 °F 94% 30.01 in 10.0 mi NNE 5.8 mph - N/A   Clear
9:15 AM 66.2 °F - 64.4 °F 94% 30.01 in 10.0 mi NNE 6.9 mph - N/A   Clear
9:35 AM 68.0 °F - 64.4 °F 88% 30.01 in 10.0 mi NNE 6.9 mph - N/A   Clear
9:53 AM 72.0 °F - 64.0 °F 76% 30.00 in - NNE 8.1 mph - N/A   Unknown
9:55 AM 69.8 °F - 62.6 °F 78% 30.02 in 10.0 mi NNE 8.1 mph - N/A   Clear
10:15 AM 71.6 °F - 62.6 °F 73% 30.02 in 10.0 mi ENE 8.1 mph - N/A   Clear
10:35 AM 71.6 °F - 60.8 °F 69% 30.02 in 10.0 mi NNE 9.2 mph - N/A   Clear
10:53 AM 77.0 °F - 60.1 °F 56% 30.01 in - NNE 9.2 mph 17.3 mph N/A   Unknown
10:55 AM 73.4 °F - 59.0 °F 61% 30.02 in 10.0 mi NE 10.4 mph - N/A   Clear
11:15 AM 75.2 °F - 59.0 °F 57% 30.02 in 10.0 mi NNE 9.2 mph - N/A   Clear
11:35 AM 75.2 °F - 57.2 °F 53% 30.02 in 10.0 mi NE 8.1 mph - N/A   Clear
11:53 AM 79.0 °F - 57.9 °F 48% 30.01 in - North 11.5 mph - N/A   Unknown
11:55 AM 77.0 °F - 57.2 °F 50% 30.02 in 10.0 mi North 10.4 mph - N/A   Clear
12:15 PM 77.0 °F - 55.4 °F 47% 30.02 in 10.0 mi NE 8.1 mph - N/A   Clear
12:35 PM 78.8 °F - 55.4 °F 44% 30.02 in 10.0 mi NNE 5.8 mph 9.2 mph N/A   Clear
12:53 PM 82.0 °F 81.7 °F 57.0 °F 42% 29.99 in - Variable 6.9 mph - N/A   Unknown
12:55 PM 78.8 °F - 53.6 °F 42% 30.01 in 10.0 mi NNE 8.1 mph - N/A   Clear
1:15 PM 80.6 °F 80.3 °F 53.6 °F 39% 30.00 in 10.0 mi NNE 9.2 mph - N/A   Clear
1:35 PM 78.8 °F - 55.4 °F 44% 29.99 in 10.0 mi NE 6.9 mph 16.1 mph N/A   Clear
1:53 PM 82.9 °F 82.4 °F 57.0 °F 41% 29.97 in - NE 9.2 mph - N/A   Unknown
1:55 PM 80.6 °F 80.5 °F 55.4 °F 42% 29.99 in 10.0 mi NE 9.2 mph - N/A   Clear
2:15 PM 80.6 °F 80.5 °F 55.4 °F 42% 29.98 in 10.0 mi NE 9.2 mph - N/A   Clear
2:35 PM 80.6 °F 80.5 °F 55.4 °F 42% 29.97 in 10.0 mi ENE 8.1 mph - N/A   Clear
2:53 PM 84.0 °F 83.8 °F 59.0 °F 43% 29.95 in - NNE 10.4 mph 17.3 mph N/A   Unknown
2:55 PM 80.6 °F 80.8 °F 57.2 °F 45% 29.96 in 10.0 mi NNE 10.4 mph 16.1 mph N/A   Clear
3:15 PM 80.6 °F 81.1 °F 59.0 °F 48% 29.96 in 10.0 mi NNE 8.1 mph - N/A   Clear
3:35 PM 80.6 °F 81.1 °F 59.0 °F 48% 29.95 in 10.0 mi NNE 8.1 mph - N/A   Clear
3:53 PM 84.0 °F 84.4 °F 61.0 °F 46% 29.94 in - NE 11.5 mph 18.4 mph N/A   Unknown
3:55 PM 80.6 °F 81.1 °F 59.0 °F 48% 29.95 in 10.0 mi NE 11.5 mph 17.3 mph N/A   Scattered Clouds
4:15 PM 80.6 °F 81.1 °F 59.0 °F 48% 29.95 in 10.0 mi NE 10.4 mph - N/A   Scattered Clouds
4:35 PM 80.6 °F 81.5 °F 60.8 °F 51% 29.95 in 10.0 mi NNE 8.1 mph 16.1 mph N/A   Scattered Clouds
4:53 PM 82.9 °F 83.7 °F 62.1 °F 49% 29.94 in - Variable 4.6 mph - N/A   Unknown
4:55 PM 78.8 °F - 60.8 °F 54% 29.95 in 10.0 mi NE 4.6 mph - N/A   Scattered Clouds
5:15 PM 80.6 °F 81.5 °F 60.8 °F 51% 29.95 in 10.0 mi NE 8.1 mph - N/A   Clear
5:35 PM 80.6 °F 81.5 °F 60.8 °F 51% 29.96 in 10.0 mi ENE 6.9 mph - N/A   Clear
5:53 PM 82.9 °F 83.7 °F 62.1 °F 49% 29.95 in - NNE 8.1 mph 17.3 mph N/A   Unknown
5:55 PM 80.6 °F 81.5 °F 60.8 °F 51% 29.96 in 10.0 mi NE 6.9 mph 16.1 mph N/A   Scattered Clouds
6:15 PM 78.8 °F - 60.8 °F 54% 29.96 in 10.0 mi NNE 6.9 mph - N/A   Clear
6:35 PM 78.8 °F - 62.6 °F 57% 29.97 in 10.0 mi NNE 5.8 mph - N/A   Clear
6:53 PM 81.0 °F 81.9 °F 62.1 °F 52% 29.96 in - NNE 5.8 mph - N/A   Unknown
6:55 PM 78.8 °F - 60.8 °F 54% 29.97 in 10.0 mi NNE 5.8 mph - N/A   Mostly Cloudy
7:15 PM 77.0 °F - 60.8 °F 57% 29.98 in 10.0 mi NE 4.6 mph - N/A   Overcast
7:35 PM 77.0 °F - 62.6 °F 61% 29.98 in 10.0 mi NE 4.6 mph - N/A   Overcast
7:53 PM 77.0 °F - 63.0 °F 62% 29.97 in - NNE 3.5 mph - N/A   Unknown
7:55 PM 75.2 °F - 62.6 °F 65% 29.99 in 10.0 mi NE 3.5 mph - N/A   Overcast
8:15 PM 75.2 °F - 62.6 °F 65% 30.00 in 10.0 mi NE 3.5 mph - N/A   Overcast
8:35 PM 73.4 °F - 62.6 °F 69% 30.00 in 10.0 mi NE 3.5 mph - N/A   Overcast
8:53 PM 75.0 °F - 63.0 °F 66% 30.00 in - NE 3.5 mph - N/A   Unknown
8:55 PM 73.4 °F - 62.6 °F 69% 30.01 in 10.0 mi NE 3.5 mph - N/A   Overcast
9:15 PM 71.6 °F - 62.6 °F 73% 30.02 in 10.0 mi Calm Calm - N/A   Mostly Cloudy
9:35 PM 71.6 °F - 62.6 °F 73% 30.02 in 10.0 mi ENE 3.5 mph - N/A   Overcast
9:53 PM 73.9 °F - 64.0 °F 71% 30.01 in - NE 3.5 mph - N/A   Unknown
9:55 PM 71.6 °F - 62.6 °F 73% 30.03 in 10.0 mi NE 3.5 mph - N/A   Overcast
10:15 PM 71.6 °F - 62.6 °F 73% 30.04 in 10.0 mi NE 3.5 mph - N/A   Overcast
10:35 PM 71.6 °F - 62.6 °F 73% 30.05 in 10.0 mi ENE 4.6 mph - N/A   Overcast
10:53 PM 72.0 °F - 63.0 °F 73% 30.04 in - Calm Calm - N/A   Unknown
10:55 PM 69.8 °F - 62.6 °F 78% 30.05 in 10.0 mi East 3.5 mph - N/A   Scattered Clouds
11:15 PM 69.8 °F - 62.6 °F 78% 30.05 in 10.0 mi East 3.5 mph - N/A   Clear
11:35 PM 69.8 °F - 62.6 °F 78% 30.05 in 10.0 mi ENE 3.5 mph - N/A   Clear
11:53 PM 70.0 °F - 62.1 °F 76% 30.04 in - Variable 3.5 mph - N/A   Unknown
11:55 PM 68.0 °F - 62.6 °F 83% 30.05 in 10.0 mi Calm Calm - N/A   Clear